Regional Weather Roundup
Issued by NWS Goodland, KS

Home | Current Version | Previous Version | Graphics & Text | Print | Product List | Glossary On
Versions: 1 2 3 4 5 6 7 8 9 10 11 12 13 14 15 16 17 18 19 20 21 22 23 24 25 26 27 28 29 30 31 32 33 34 35 36 37 38 39 40 41 42 43 44 45 46 47 48 49 50
000
ASUS43 KGLD 240508
RWRGLD

GOODLAND FORECAST AREA HOURLY WEATHER ROUNDUP
NATIONAL WEATHER SERVICE GOODLAND KS
1100 PM MDT WED JUL 23 2014

...OFFICIAL OBSERVATIONS...

CITY           SKY/WX    TMP DP  RH WIND       PRES   REMARKS
GOODLAND KS    MOCLDY    73  64  73 SE9       30.20S
HILL CITY KS   CLEAR     69  64  84 E3        30.16F
IMPERIAL NEB   CLEAR     69  64  84 SE14      30.16F
MCCOOK NEB     CLEAR     70  63  78 E9        30.15F
AKRON CO       PTCLDY    75  60  59 S13       30.20F
BURLINGTON CO  MOCLDY    76  65  68 SE14      30.21F
LIMON CO       PTCLDY    72  63  73 S13       30.27S
$$

...UNOFFICIAL OBSERVATIONS...

CITY           SKY/WX    TMP DP  RH WIND       PRES   REMARKS
COLBY KS       CLEAR     72  66  83 E12       30.19F
GOVE KS          N/A     72  32  23 MISG        N/A
LENORA KS        N/A     71  32  23 MISG        N/A
NORTON KS      CLEAR     70  61  73 E10       30.15F
OBERLIN KS     FAIR      70  61  73 SE6       30.15F
SHARON SPRINGS   N/A     75  69  81 SE10        N/A
ST FRANCIS KS  PTCLDY    72  63  73 SE18G24   30.15F
TRENTON NEB      N/A     68  32  26 SE12        N/A
KIT CARSON CO    N/A     77  65  66 N13         N/A
WRAY CO          N/A     79  61  53 SE8       30.16
YUMA CO          N/A     70  62  77 SE7         N/A
$$


USA.gov is the U.S. government's official web portal to all federal, state and local government web resources and services.